Date String (YYYY-MM-DD hh:mm:ss) UTC,Instrument flags,Ambient pressure (hPa),Sample flow (lpm),Bypass flow (lpm),Sample temperature (°C),Ambient temperature (°C),ASC tube jacket temperature (°C),LED temperature (°C),Box temperature (°C),Sample RH (%),Span deviation,Mass concentration (μg/m³),Mass concentration (μg/m³),Mass concentration (μg/m³)
DateTimeUTC,F1_M11,P_M11,Q1_M11,Q2_M11,T1_M11,T2_M11,T3_M11,T4_M11,T5_M11,U1_M11,ZSPAN_M11,X2_M11,X0_M11,X1_M11
2021-12-14 11:00:00,,0822.4,5.01,0.00,25.3,24.4,00.0,34.3,27.0,07.2,0000.0,0006.68,0020.69,0004.62
2021-12-14 11:01:00,,0822.6,4.98,0.00,25.3,24.4,00.0,34.3,27.0,07.3,0000.0,0006.48,0020.47,0004.56
2021-12-14 11:02:00,,0822.5,5.01,0.00,25.2,24.3,00.0,34.3,26.9,07.4,0001.6,0006.44,0020.61,0004.57
2021-12-14 11:03:00,,0822.4,5.00,0.00,25.2,24.3,00.0,34.3,26.8,07.3,0003.8,0006.45,0020.82,0004.57
2021-12-14 11:04:00,,0822.4,5.00,0.00,25.2,24.3,00.0,34.3,26.8,07.3,0003.2,0006.54,0023.02,0004.62
2021-12-14 11:05:00,,0822.4,4.99,0.00,25.2,24.3,00.0,34.2,26.8,07.4,0003.6,0006.65,0024.61,0004.67
2021-12-14 11:06:00,,0822.4,5.00,0.00,25.2,24.3,00.0,34.2,26.8,07.5,0004.3,0006.83,0026.57,0004.76
2021-12-14 11:07:00,,0822.4,5.00,0.00,25.2,24.3,00.0,34.2,26.9,07.5,0004.2,0007.00,0028.18,0004.86
2021-12-14 11:08:00,,0822.4,4.99,0.00,25.1,24.2,00.0,34.2,26.8,07.5,0003.7,0007.12,0028.95,0004.94
2021-12-14 11:09:00,,0822.5,5.01,0.00,25.1,24.2,00.0,34.2,26.8,07.6,0001.2,0007.19,0029.99,0005.00
2021-12-14 11:10:00,,0822.5,4.98,0.00,25.1,24.3,00.0,34.2,26.8,07.5,0000.9,0007.32,0029.40,0005.06
2021-12-14 11:11:00,,0822.5,5.02,0.00,25.1,24.3,00.0,34.2,26.8,07.6,0002.6,0007.42,0029.75,0005.11
2021-12-14 11:12:00,,0822.6,4.98,0.00,25.1,24.3,00.0,34.2,26.8,07.6,0003.4,0007.52,0029.91,0005.17
2021-12-14 11:13:00,,0822.6,5.00,0.00,25.1,24.2,00.0,34.2,26.8,07.3,0002.9,0007.52,0029.21,0005.16
2021-12-14 11:14:00,,0822.6,5.01,0.00,25.0,24.2,00.0,34.1,26.7,07.2,0001.0,0007.46,0029.30,0005.13
2021-12-14 11:15:00,,0822.4,5.00,0.00,25.0,24.2,00.0,34.1,26.7,07.3,0000.7,0007.48,0029.27,0005.12
2021-12-14 11:16:00,,0822.4,4.99,0.00,25.0,24.2,00.0,34.1,26.8,07.4,0001.4,0007.46,0029.96,0005.10
2021-12-14 11:17:00,,0822.4,5.01,0.00,25.0,24.2,00.0,34.1,26.8,07.5,0000.9,0007.49,0031.02,0005.11
2021-12-14 11:18:00,,0822.5,4.99,0.00,25.0,24.2,00.0,34.1,26.8,07.7,0001.3,0007.53,0032.06,0005.11
2021-12-14 11:19:00,,0822.5,4.99,0.00,25.0,24.2,00.0,34.1,26.8,07.7,0002.5,0007.59,0032.15,0005.11
2021-12-14 11:20:00,,0822.5,5.01,0.00,25.1,24.2,00.0,34.1,26.8,07.6,0003.4,0007.58,0032.48,0005.09
2021-12-14 11:21:00,,0822.6,4.99,0.00,25.1,24.2,00.0,34.1,26.8,07.6,0003.6,0007.60,0032.94,0005.08
2021-12-14 11:22:00,,0822.4,5.01,0.00,25.0,24.2,00.0,34.1,26.7,07.7,0003.3,0007.60,0032.75,0005.07
2021-12-14 11:23:00,,0822.4,5.01,0.00,25.0,24.1,00.0,34.1,26.7,07.7,0002.7,0007.61,0032.66,0005.06
2021-12-14 11:24:00,,0822.4,5.00,0.00,25.0,24.1,00.0,34.0,26.7,07.6,0002.3,0007.58,0032.63,0005.03
2021-12-14 11:25:00,,0822.4,5.01,0.00,25.0,24.1,00.0,34.0,26.7,07.5,0002.4,0007.63,0032.32,0005.05
2021-12-14 11:26:00,,0822.4,5.00,0.00,25.0,24.1,00.0,34.0,26.7,07.5,0002.3,0007.67,0031.14,0005.08
2021-12-14 11:27:00,,0822.4,5.00,0.00,25.0,24.1,00.0,34.0,26.7,07.4,0001.7,0007.65,0029.83,0005.08
2021-12-14 11:28:00,,0822.4,5.00,0.00,25.0,24.2,00.0,34.0,26.8,07.5,0001.0,0007.61,0026.90,0005.08
2021-12-14 11:29:00,,0822.6,5.01,0.00,25.0,24.2,00.0,34.0,26.8,07.5,0001.0,0007.54,0025.38,0005.06
2021-12-14 11:30:00,,0822.6,4.99,0.00,25.0,24.2,00.0,34.0,26.8,07.5,-000.1,0007.39,0024.61,0005.02
2021-12-14 11:31:00,,0822.6,5.01,0.00,25.0,24.2,00.0,34.0,26.8,07.4,-000.5,0007.31,0022.73,0004.99
2021-12-14 11:32:00,,0822.6,4.99,0.00,25.0,24.2,00.0,34.0,26.8,07.3,0000.2,0007.20,0021.74,0004.95
2021-12-14 11:33:00,,0822.6,5.01,0.00,25.0,24.2,00.0,34.0,26.8,07.3,0000.1,0007.16,0021.75,0004.92
2021-12-14 11:34:00,,0822.6,5.01,0.00,25.0,24.2,00.0,34.0,26.8,07.3,0000.9,0007.01,0020.12,0004.86
2021-12-14 11:35:00,,0822.6,4.99,0.00,25.0,24.2,00.0,34.0,26.7,07.3,-001.0,0006.94,0020.48,0004.83
2021-12-14 11:36:00,,0822.5,5.01,0.00,25.0,24.2,00.0,34.0,26.7,07.3,-001.6,0006.90,0020.66,0004.81
2021-12-14 11:37:00,,0822.5,4.99,0.00,25.0,24.2,00.0,34.0,26.7,07.2,-002.2,0006.87,0020.22,0004.78
2021-12-14 11:38:00,,0822.4,5.01,0.00,25.0,24.2,00.0,34.0,26.7,07.2,-002.4,0006.79,0021.45,0004.75
2021-12-14 11:39:00,,0822.4,5.00,0.00,25.0,24.2,00.0,34.0,26.7,07.2,0009.5,0006.75,0023.58,0004.72
2021-12-14 11:40:00,,0822.4,4.99,0.00,25.0,24.2,00.0,34.0,26.8,07.2,0009.8,0006.66,0023.83,0004.70
2021-12-14 11:41:00,,0822.4,5.01,0.00,25.0,24.1,00.0,34.0,26.8,07.2,0001.1,0006.61,0023.62,0004.67
2021-12-14 11:42:00,,0822.4,4.99,0.00,25.0,24.1,00.0,34.0,26.7,07.3,0000.7,0006.56,0023.31,0004.64
2021-12-14 11:43:00,,0822.6,5.00,0.00,24.9,24.0,00.0,34.0,26.6,07.4,0001.2,0006.56,0023.90,0004.65
2021-12-14 11:44:00,,0822.6,5.00,0.00,24.9,24.0,00.0,34.0,26.6,07.3,0001.7,0006.52,0023.47,0004.65
2021-12-14 11:45:00,,0822.5,4.99,0.00,24.9,23.9,00.0,33.9,26.5,07.6,-000.3,0006.57,0024.03,0004.67
2021-12-14 11:46:00,,0822.4,5.00,0.00,24.8,24.0,00.0,33.9,26.5,08.0,0000.5,0006.64,0023.75,0004.72
2021-12-14 11:47:00,,0822.5,5.01,0.00,24.8,23.9,00.0,33.9,26.5,08.1,0000.9,0006.77,0023.85,0004.78
2021-12-14 11:48:00,,0822.6,5.01,0.00,24.8,23.9,00.0,33.9,26.4,08.1,0001.5,0006.97,0027.23,0004.86
2021-12-14 11:49:00,,0822.7,4.99,0.00,24.7,23.8,00.0,33.9,26.3,08.1,0002.9,0007.17,0025.96,0004.95
2021-12-14 11:50:00,,0822.6,4.99,0.00,24.6,23.7,00.0,33.8,26.2,08.1,0003.6,0007.39,0025.47,0005.03
2021-12-14 11:51:00,,0822.6,5.01,0.00,24.6,23.6,00.0,33.8,26.1,08.1,0004.6,0007.59,0026.65,0005.08
2021-12-14 11:52:00,,0822.6,5.00,0.00,24.5,23.6,00.0,33.8,26.1,08.1,0005.2,0007.76,0026.26,0005.14
2021-12-14 11:53:00,,0822.6,5.01,0.00,24.5,23.6,00.0,33.7,26.1,08.2,0005.4,0007.96,0026.98,0005.21
2021-12-14 11:54:00,,0822.6,4.99,0.00,24.5,23.6,00.0,33.7,26.1,08.2,0001.6,0008.09,0027.31,0005.25
2021-12-14 11:55:00,,0822.6,5.01,0.00,24.4,23.6,00.0,33.7,26.1,08.3,0000.6,0008.24,0028.81,0005.31
2021-12-14 11:56:00,,0822.6,4.98,0.00,24.4,23.5,00.0,33.7,26.0,08.3,0000.0,0008.32,0030.65,0005.36
2021-12-14 11:57:00,,0822.5,5.02,0.00,24.4,23.5,00.0,33.6,26.0,08.3,0000.0,0008.39,0031.82,0005.36
2021-12-14 11:58:00,,0822.5,4.98,0.00,24.4,23.6,00.0,33.6,26.1,08.3,0000.0,0008.42,0033.56,0005.36
2021-12-14 11:59:00,,0822.5,5.01,0.00,24.4,23.6,00.0,33.6,26.1,08.4,0000.0,0008.47,0035.57,0005.37
